Powrót do katalogu

STARLINK-31557

AktywnyŁącznośćVLEO
NORAD 59357·PAYLOAD·🇺🇸 United States

Wystrzelony Mar 31, 2024 z Cape Canaveral Space Force Station

Loading…

Następne Przeloty (najbliższe 24 godziny)

TLE

ŚwieżeSource: CelesTrak SupGP

Epoka: Sep 14, 2026, 20:50 UTC

1 59357C 24060K   26257.86854167  .00018306  00000+0  66325-3 0  2577
2 59357  43.0023 267.3792 0001435 266.4327  42.9592 15.27558084    19

Śledź STARLINK-31557 w czasie rzeczywistym z AllMySat

Download on the App Store